Tracking 18851 objects as of 25-Nov-2017
HD Live streaming from Space Station
objects crossing your sky now

FENGYUN 1C DEB

Track FENGYUN 1C DEB now!
10-day predictions


NORAD ID: 30503
Int'l Code: 1999-025AHR
Perigee: 849.7 km
Apogee: 861.7 km
Inclination: 99.0 °
Period: 101.9 minutes
Semi major axis: 7226 km
RCS: 0.0055 m2 (small)
Launch date: May 10, 1999
Source: People's Republic of China (PRC)
Launch site: Taiyaun Space Center, China (TSC)

Note: This is SATELLITE DEBRIS
aabbcc
Your satellite tracking list
Your tracking list is empty




NASA's NSSDC Master Catalog

Two Line Element Set (TLE):
1 30503U 99025AHR 17328.83724448  .00000150  00000-0  10427-3 0  9990
2 30503  98.9914  70.9585 0008347 265.1460 217.8660 14.13165163558271
Source of the keplerian elements: AFSPC